Change the Weather History Date:

Tuesday, October 23, 2012

  Actual Average Record
Temperature  
Mean Temperature 43 °F 49 °F  
Max Temperature 50 °F 64 °F 79 °F (1988)
Min Temperature 35 °F 35 °F 26 °F (2002)
Degree Days  
Heating Degree Days 22 16  
Month to date heating degree days 213 269  
Since 1 July heating degree days 228 411  
Cooling Degree Days 0 0  
Month to date cooling degree days 3 0  
Year to date cooling degree days 622 542  
Moisture  
Dew Point 31 °F    
Average Humidity 69    
Maximum Humidity 92    
Minimum Humidity 39    
Precipitation  
Precipitation 0.01 in 0.04 in 1.13 in (1973)
Month to date precipitation 0.43 0.67  
Year to date precipitation 8.06 12.31  
Sea Level Pressure  
Sea Level Pressure 29.93 in    
Wind  
Wind Speed 7 mph (South)    
Max Wind Speed 22 mph    
Max Gust Speed 26 mph    
Visibility 10 miles    
Events Rain    
T = Trace of Precipitation, MM = Missing Value Source: NWS Daily Summary

Daily Weather History Graph

Daily Weather History Graph

Search for Another Location

Airport or City:

Trip Planner

Search our weather history database for the weather conditions in past years. The results will help you decide how hot, cold, wet, or windy it might be!

Date:

Astronomy

Oct. 23, 2012 Rise Set
Actual Time 7:32 AM PDT 6:15 PM PDT
Civil Twilight 7:03 AM PDT 6:43 PM PDT
Nautical Twilight 6:31 AM PDT 7:16 PM PDT
Astronomical Twilight 5:58 AM PDT 7:48 PM PDT
Moon 3:06 PM PDT (10/23) 1:24 AM PDT (10/23)
Length of Visible Light 11h 40m
Length of Day
10h 43m
Waxing Gibbous, 67% of the Moon is Illuminated
Oct 23
Waxing Gibbous
Oct 29
Full
Nov 6
Last Quarter
Nov 13
New
Nov 20
First Quarter

Hourly Weather History & Observations

Time (PDT) Temp. Windchill Dew Point Humidity Pressure Visibility Wind Dir Wind Speed Gust Speed Precip Events Conditions
12:53 AM 39.0 °F 33.4 °F 33.1 °F 79% 29.81 in 10.0 mi SSW 8.1 mph - 0.00 in Rain Light Rain
1:53 AM 37.0 °F - 33.1 °F 86% 29.84 in 10.0 mi Calm Calm - 0.00 in   Overcast
2:53 AM 39.0 °F 36.8 °F 33.1 °F 79% 29.85 in 10.0 mi WNW 3.5 mph - 0.00 in Rain Light Rain
3:53 AM 37.9 °F - 32.0 °F 79% 29.87 in 10.0 mi Calm Calm - 0.01 in   Overcast
4:53 AM 36.0 °F - 32.0 °F 86% 29.89 in 10.0 mi Calm Calm - N/A   Overcast
5:53 AM 37.0 °F 34.5 °F 33.1 °F 86% 29.91 in 10.0 mi SW 3.5 mph - 0.00 in Rain Light Rain
6:53 AM 35.1 °F - 33.1 °F 92% 29.94 in 10.0 mi Calm Calm - 0.00 in   Overcast
7:53 AM 36.0 °F - 33.1 °F 89% 29.95 in 10.0 mi Calm Calm - N/A   Overcast
8:53 AM 37.9 °F - 34.0 °F 86% 29.98 in 10.0 mi Calm Calm - N/A   Overcast
10:53 AM 45.0 °F 40.6 °F 32.0 °F 60% 29.99 in 10.0 mi South 8.1 mph - N/A   Partly Cloudy
11:53 AM 46.9 °F - 28.9 °F 50% 29.98 in 10.0 mi South 5.8 mph - N/A   Mostly Cloudy
12:53 PM 48.0 °F - 27.0 °F 44% 29.97 in 10.0 mi South 9.2 mph 17.3 mph N/A   Overcast
1:53 PM 48.0 °F - 25.0 °F 41% 29.96 in 10.0 mi South 11.5 mph 19.6 mph N/A   Overcast
2:53 PM 48.9 °F - 27.0 °F 43% 29.95 in 10.0 mi South 13.8 mph - N/A   Overcast
4:53 PM 48.0 °F - 28.0 °F 46% 29.93 in 10.0 mi South 17.3 mph - 0.00 in   Partly Cloudy
5:53 PM 45.0 °F 37.4 °F 28.0 °F 52% 29.94 in 10.0 mi South 18.4 mph - N/A   Mostly Cloudy
6:53 PM 43.0 °F 36.0 °F 30.9 °F 62% 29.95 in 10.0 mi South 13.8 mph - N/A   Mostly Cloudy
7:53 PM 41.0 °F 34.7 °F 30.9 °F 67% 29.95 in 10.0 mi SSW 10.4 mph - N/A   Scattered Clouds
8:53 PM 43.0 °F 36.4 °F 32.0 °F 65% 29.95 in 10.0 mi SSW 12.7 mph - N/A   Overcast
9:53 PM 41.0 °F 38.0 °F 34.0 °F 76% 29.94 in 10.0 mi SW 4.6 mph - N/A   Overcast
10:53 PM 41.0 °F 37.1 °F 33.1 °F 73% 29.94 in 10.0 mi SW 5.8 mph - N/A   Overcast
11:53 PM 37.9 °F 35.5 °F 32.0 °F 79% 29.95 in 10.0 mi SE 3.5 mph - N/A   Overcast